Total_Precipitation_Accumulation
0.51 0.35 0.26 0.24 0.24 0.23 0.25 0.32 0.61 0.93 1.28 1.57 1.84 1.87 1.69 1.43 1.25 1.25 1.29 1.29 1.24 1.13 1.01 0.86 0.78 0.77 0.77 0.78 0.72 0.66 0.66 0.68 0.68 0.61 0.58 0.61 0.62 0.55 0.49 0.44 0.38 0.36 0.32 0.27
0.40 0.34 0.32 0.38 0.36 0.37 0.39 0.45 0.63 0.97 1.41 1.62 1.59 1.40 1.36 1.31 1.22 1.32 1.45 1.53 1.49 1.33 1.15 0.99 0.87 0.82 0.79 0.78 0.70 0.62 0.62 0.70 0.74 0.70 0.66 0.67 0.69 0.65 0.56 0.49 0.43 0.34 0.29 0.27
0.54 0.42 0.53 0.84 0.67 0.60 0.61 0.62 0.74 1.05 1.19 1.12 1.17 1.19 1.22 1.23 1.29 1.47 1.61 1.59 1.47 1.35 1.22 1.10 1.03 0.93 0.88 0.82 0.73 0.69 0.70 0.69 0.73 0.74 0.75 0.71 0.65 0.65 0.60 0.52 0.44 0.38 0.31 0.29
0.51 0.64 1.11 1.11 0.67 0.60 0.62 0.58 0.55 0.65 0.68 0.77 0.93 1.07 1.19 1.29 1.44 1.62 1.73 1.75 1.68 1.49 1.34 1.18 1.03 0.94 0.85 0.76 0.73 0.74 0.76 0.73 0.67 0.64 0.61 0.58 0.58 0.60 0.57 0.51 0.44 0.41 0.34 0.29
0.67 0.94 1.17 1.04 0.64 0.54 0.67 0.74 0.52 0.50 0.52 0.59 0.71 0.89 1.27 1.41 1.49 1.60 1.67 1.67 1.61 1.48 1.37 1.25 1.08 0.94 0.85 0.79 0.74 0.73 0.72 0.67 0.59 0.51 0.49 0.49 0.52 0.54 0.50 0.47 0.44 0.39 0.34 0.32
0.78 1.14 1.47 1.27 0.59 0.34 0.57 1.05 0.67 0.44 0.41 0.51 0.73 1.03 1.18 1.17 1.25 1.28 1.22 1.18 1.17 1.15 1.12 1.06 0.93 0.81 0.78 0.77 0.70 0.64 0.60 0.54 0.47 0.43 0.42 0.44 0.45 0.46 0.44 0.42 0.38 0.34 0.32 0.33
0.84 1.14 1.34 0.69 0.36 0.40 0.99 1.26 0.84 0.63 0.57 0.63 0.86 0.94 0.80 0.77 0.90 0.99 0.99 0.97 0.92 0.89 0.91 0.88 0.77 0.72 0.73 0.70 0.65 0.52 0.44 0.44 0.44 0.43 0.42 0.40 0.41 0.43 0.41 0.37 0.37 0.35 0.36 0.35
0.92 1.23 1.35 0.53 0.39 0.72 0.85 0.62 0.62 0.63 0.65 0.68 0.67 0.59 0.54 0.56 0.71 0.90 1.01 1.02 0.94 0.86 0.78 0.69 0.65 0.70 0.73 0.66 0.49 0.40 0.39 0.42 0.44 0.41 0.35 0.32 0.39 0.43 0.38 0.40 0.41 0.42 0.41 0.36
0.96 1.10 0.79 0.42 0.40 0.39 0.37 0.40 0.41 0.42 0.46 0.53 0.59 0.58 0.54 0.60 0.71 0.82 0.92 0.96 0.91 0.78 0.68 0.56 0.52 0.56 0.59 0.48 0.34 0.32 0.39 0.45 0.44 0.38 0.39 0.36 0.37 0.38 0.37 0.38 0.35 0.33 0.34 0.32
0.81 0.79 0.55 0.41 0.31 0.26 0.27 0.33 0.34 0.36 0.40 0.52 0.70 0.73 0.68 0.69 0.78 0.82 0.81 0.74 0.67 0.63 0.57 0.47 0.39 0.37 0.35 0.27 0.26 0.31 0.39 0.41 0.40 0.41 0.42 0.42 0.38 0.28 0.26 0.28 0.26 0.25 0.28 0.30
1.07 0.96 0.71 0.48 0.34 0.32 0.30 0.33 0.40 0.48 0.51 0.56 0.62 0.68 0.70 0.69 0.68 0.63 0.58 0.53 0.50 0.51 0.48 0.35 0.28 0.25 0.20 0.18 0.22 0.30 0.33 0.35 0.35 0.36 0.37 0.43 0.38 0.23 0.16 0.14 0.11 0.15 0.20 0.22
1.37 1.05 0.89 0.69 0.51 0.49 0.47 0.46 0.47 0.46 0.45 0.48 0.46 0.46 0.53 0.55 0.53 0.46 0.42 0.42 0.43 0.41 0.37 0.29 0.25 0.22 0.17 0.14 0.18 0.28 0.31 0.28 0.22 0.21 0.25 0.27 0.31 0.27 0.14 0.06 0.04 0.05 0.07 0.10
1.03 0.79 0.70 0.67 0.61 0.58 0.51 0.40 0.36 0.33 0.29 0.34 0.36 0.35 0.37 0.37 0.35 0.32 0.31 0.31 0.33 0.28 0.23 0.23 0.20 0.17 0.15 0.14 0.14 0.19 0.25 0.22 0.14 0.11 0.15 0.19 0.22 0.29 0.28 0.15 0.06 0.04 0.03 0.05
0.68 0.64 0.62 0.49 0.36 0.29 0.22 0.19 0.20 0.23 0.23 0.22 0.24 0.24 0.24 0.24 0.23 0.23 0.23 0.23 0.21 0.17 0.14 0.16 0.17 0.14 0.11 0.10 0.11 0.13 0.13 0.10 0.10 0.12 0.12 0.13 0.14 0.17 0.21 0.27 0.26 0.19 0.09 0.05
0.41 0.39 0.34 0.21 0.13 0.13 0.13 0.13 0.15 0.17 0.19 0.21 0.19 0.18 0.17 0.18 0.19 0.18 0.16 0.14 0.14 0.13 0.11 0.11 0.13 0.12 0.08 0.07 0.09 0.12 0.13 0.12 0.10 0.08 0.07 0.07 0.08 0.09 0.13 0.18 0.22 0.24 0.21 0.13
0.22 0.19 0.17 0.13 0.11 0.12 0.13 0.12 0.12 0.11 0.13 0.15 0.16 0.16 0.14 0.14 0.12 0.12 0.12 0.10 0.13 0.14 0.11 0.08 0.08 0.06 0.05 0.05 0.07 0.08 0.07 0.05 0.05 0.06 0.05 0.05 0.05 0.07 0.10 0.15 0.18 0.19 0.22 0.21
0.18 0.14 0.12 0.12 0.11 0.12 0.11 0.09 0.07 0.06 0.08 0.10 0.10 0.09 0.08 0.09 0.10 0.11 0.10 0.10 0.10 0.10 0.08 0.06 0.04 0.03 0.02 0.03 0.05 0.04 0.04 0.03 0.02 0.03 0.04 0.05 0.04 0.04 0.06 0.10 0.14 0.18 0.15 0.15
0.15 0.11 0.09 0.10 0.09 0.10 0.08 0.06 0.04 0.04 0.04 0.04 0.04 0.04 0.05 0.07 0.08 0.08 0.07 0.07 0.07 0.06 0.05 0.04 0.02 0.02 0.02 0.03 0.02 0.01 0.03 0.02 0.03 0.03 0.04 0.04 0.04 0.03 0.04 0.05 0.08 0.13 0.14 0.13
0.12 0.12 0.08 0.07 0.07 0.07 0.06 0.04 0.03 0.02 0.02 0.02 0.03 0.03 0.04 0.06 0.06 0.05 0.05 0.07 0.08 0.08 0.06 0.02 0.01 0.02 0.03 0.02 0.02 0.02 0.02 0.02 0.03 0.03 0.03 0.03 0.03 0.04 0.04 0.03 0.05 0.09 0.11 0.14
0.10 0.11 0.09 0.06 0.05 0.04 0.04 0.02 0.02 0.02 0.02 0.02 0.02 0.02 0.03 0.04 0.03 0.03 0.04 0.07 0.09 0.06 0.04 0.01 0.01 0.01 0.01 0.01 0.01 0.01 0.01 0.01 0.02 0.03 0.03 0.03 0.04 0.04 0.03 0.03 0.03 0.05 0.08 0.11
0.09 0.11 0.07 0.05 0.05 0.05 0.03 0.02 0.02 0.02 0.02 0.01 0.01 0.02 0.02 0.02 0.02 0.02 0.03 0.05 0.05 0.03 0.02 0.01 0.01 0.00 0.00 0.01 0.00 0.00 0.01 0.02 0.03 0.02 0.02 0.02 0.03 0.03 0.03 0.03 0.03 0.04 0.05 0.08
0.09 0.11 0.08 0.05 0.06 0.04 0.03 0.03 0.02 0.02 0.02 0.01 0.01 0.01 0.02 0.02 0.02 0.02 0.02 0.02 0.02 0.02 0.02 0.01 0.00 0.00 0.00 0.00 0.00 0.00 0.01 0.01 0.02 0.02 0.01 0.01 0.02 0.02 0.02 0.03 0.04 0.04 0.04 0.07
0.12 0.11 0.08 0.06 0.05 0.04 0.04 0.03 0.02 0.03 0.02 0.02 0.02 0.01 0.01 0.01 0.02 0.02 0.02 0.01 0.00 0.01 0.01 0.01 0.00 0.00 0.00 0.00 0.00 0.00 0.01 0.01 0.01 0.01 0.01 0.01 0.01 0.01 0.02 0.02 0.03 0.03 0.04 0.05
0.16 0.13 0.10 0.06 0.06 0.06 0.05 0.03 0.02 0.02 0.03 0.02 0.01 0.01 0.01 0.01 0.01 0.01 0.00 0.00 0.00 0.01 0.01 0.00 0.00 0.00 0.00 0.00 0.00 0.00 0.00 0.00 0.00 0.00 0.01 0.01 0.01 0.01 0.01 0.01 0.02 0.03 0.04 0.03
0.21 0.17 0.11 0.10 0.10 0.09 0.07 0.04 0.03 0.02 0.02 0.02 0.01 0.01 0.01 0.01 0.01 0.00 0.00 0.00 0.01 0.01 0.01 0.01 0.01 0.01 0.01 0.00 0.00 0.00 0.00 0.00 0.00 0.00 0.00 0.00 0.00 0.01 0.01 0.02 0.02 0.03 0.03 0.03
0.27 0.23 0.18 0.14 0.11 0.08 0.05 0.05 0.04 0.04 0.03 0.03 0.02 0.02 0.02 0.01 0.00 0.00 0.00 0.01 0.01 0.02 0.01 0.00 0.01 0.01 0.01 0.00 0.00 0.00 0.00 0.00 0.00 0.00 0.00 0.00 0.00 0.01 0.01 0.02 0.03 0.03 0.03 0.03
0.33 0.29 0.24 0.16 0.09 0.06 0.07 0.08 0.06 0.05 0.04 0.04 0.04 0.03 0.02 0.01 0.01 0.01 0.01 0.01 0.01 0.01 0.01 0.00 0.01 0.01 0.01 0.00 0.00 0.00 0.01 0.01 0.01 0.01 0.01 0.01 0.01 0.01 0.01 0.02 0.03 0.04 0.04 0.03